Regional Weather Roundup
Issued by NWS San Angelo, TX

Home | Current Version | Previous Version | Text Only | Print | Product List | Glossary On
Versions: 1 2 3 4 5 6 7 8 9 10 11 12 13 14 15 16 17 18 19 20 21 22 23 24 25 26 27 28 29 30 31 32 33 34 35 36 37 38 39 40 41 42 43 44 45 46 47 48 49 50
000
ASUS44 KSJT 230710
RWRSJT
WEST CENTRAL TEXAS REGIONAL WEATHER ROUNDUP
NATIONAL WEATHER SERVICE SAN ANGELO TX
100 AM CST FRI FEB 23 2018

NOTE: "FAIR" INDICATES FEW OR NO CLOUDS BELOW 12,000 FEET WITH NO
SIGNIFICANT WEATHER AND/OR OBSTRUCTIONS TO VISIBILITY.

TXZ049-054-064>066-071>073-076>078-098-099-113-114-127-128-139-140-
154-155-168>170-230800
...LOCATIONS ACROSS WEST CENTRAL TEXAS...

CITY           SKY/WX    TMP DP  RH WIND       PRES   REMARKS
SAN ANGELO     CLOUDY    40  37  89 E3        30.17F FOG
ABILENE        CLOUDY    33  33 100 CALM      30.17F FOG
DYESS AFB      PTCLDY    32  32 100 CALM      30.17F
JUNCTION       NOT AVBL
SWEETWATER     CLOUDY    36  36 100 SW3       30.18F
BROWNWOOD      CLOUDY    39  37  93 CALM      30.21S
COLEMAN        CLOUDY    39  37  93 S3        30.19S
SONORA         FOG       45  45 100 CALM      30.20F VSB 3/4
OZONA          FOG       43  41  93 SE3       30.18S VSB 3/4
BRADY          NOT AVBL
$$

TEXAS PANHANDLE/OKLAHOMA PANHANDLE

CITY           SKY/WX    TMP DP  RH WIND       PRES   REMARKS
AMARILLO       CLOUDY    31  27  85 SW8       30.11S WCI  23
BORGER         CLOUDY    40  31  70 SW9       30.11S WCI  34
CANADIAN       CLOUDY    31  30  98 S6        30.13S WCI  25
DALHART        CLEAR     25  14  63 SW8       30.09S WCI  16
DUMAS          SUNNY     36  28  73 SW12      30.09F WCI  28
GUYMON         NOT AVBL
HEREFORD       CLOUDY    36  30  80 SW7       30.12S WCI  30
PAMPA          CLOUDY    36  32  86 SW10      30.11R WCI  28
PERRYTON       CLOUDY    33  31  91 SW8       30.09S WCI  27
$$

SOUTHERN PANHANDLE/SOUTH PLAINS/ROLLING PLAINS

CITY           SKY/WX    TMP DP  RH WIND       PRES   REMARKS
LUBBOCK        CLOUDY    36  33  89 SW6       30.13S WCI  31
SNYDER         FOG       37  37 100 S7        30.18S VSB 1/4 WCI  31
CHILDRESS      CLOUDY    37  35  92 S8        30.17F WCI  31
SEMINOLE       CLOUDY    35  31  85 CALM      30.14F
$$

PERMIAN BASIN

CITY           SKY/WX    TMP DP  RH WIND       PRES   REMARKS
MIDLAND        CLOUDY    40  38  93 SE7       30.14F FOG     WCI  35
ODESSA         CLOUDY    38  36  92 SE3       30.14F
WINK           CLOUDY    35  29  78 NE3       30.12F
$$

FAR WEST/SOUTHWEST MOUNTAINS/TRANS PECOS

CITY           SKY/WX    TMP DP  RH WIND       PRES   REMARKS
ALPINE         SUNNY     35  22  59 SW3       30.18F
DRYDEN           N/A     42  39  89 N6        30.14R WCI  38
EL PASO        CLEAR     44  24  45 SE9       30.12S WCI  39
FORT STOCKTON  CLOUDY    37  31  78 W6        30.12F WCI  32
GUADALUPE PASS MOCLDY    48  19  31 SW10      30.15F
MARFA          CLEAR     34  13  41 N5        30.14  WCI  30
PECOS          CLOUDY    34  26  70 NW3       30.14F
$$

DALLAS/FORT WORTH METROPLEX

CITY           SKY/WX    TMP DP  RH WIND       PRES   REMARKS
DFW AIRPORT    CLOUDY    41  37  86 CALM      30.22S
FTW MEACHAM    CLOUDY    39  36  89 NW3       30.23S
DAL-EXECUTIVE  LGT RAIN  40  39  97 CALM      30.22F
GRAND PRAIRIE  CLOUDY    40  40 100 CALM      30.26S
ADDISON        CLOUDY    39  37  93 CALM      30.25F
MESQUITE       CLOUDY    40  39  96 NW6       30.24F WCI  36
LANCASTER      RAIN      39  38  95 CALM      30.26R
$$

NORTH CENTRAL TEXAS

CITY           SKY/WX    TMP DP  RH WIND       PRES   REMARKS
SHRMAN/DENISON CLOUDY    36  35  96 CALM      30.24S
GAINESVILLE    CLOUDY    33  32  96 CALM      30.25S
BRIDGEPORT     CLOUDY    34  34 100 CALM      30.26R
DENTON         CLOUDY    37  35  92 NW7       30.23F WCI  32
WAXAHACHIE     HVY RAIN  39  39 100 CALM      30.23F
GRANBURY       CLOUDY    38  35  87 CALM      30.25S
$$

WESTERN NORTH TEXAS

CITY           SKY/WX    TMP DP  RH WIND       PRES   REMARKS
WICHITA FALLS  CLOUDY    33  32  96 CALM      30.21F
VERNON         CLOUDY    36  32  85 W7        30.22F WCI  31
BRECKENRIDGE   CLOUDY    34  34 100 CALM      30.21S
COMANCHE       CLOUDY    39  39 100 SE3       30.21F
$$

CENTRAL AND SOUTH CENTRAL TEXAS

CITY           SKY/WX    TMP DP  RH WIND       PRES   REMARKS
AUSTIN/BERGSTM CLOUDY    43  43 100 N9        30.22F FOG     WCI  38
WACO           CLOUDY    40  38  93 CALM      30.25S
HILLSBORO      DRIZZLE   40  40  97 NW5       30.24R WCI  37
TEMPLE         TSTM      39  39 100 N7        30.23F FOG     WCI  34
KILLEEN-GRAY   LGT RAIN  39  39 100 CALM      30.20F
FORT HOOD      NOT AVBL
GEORGETOWN     LGT RAIN  41  39  93 E7        30.23F WCI  36
LAGO VISTA     CLOUDY    42  42 100 NE8       30.20S WCI  37
SAN MARCOS     CLOUDY    44  43  96 N8        30.22R WCI  39
NEW BRAUNFELS  CLOUDY    45  44  97 NE9       30.20R
RANDOLPH AFB   DRIZZLE   46  45  93 N7        30.20R
SAN ANTONIO    LGT RAIN  48  46  93 E14       30.18R FOG
STINSON        LGT RAIN  49  47  93 E10       30.16R
PLEASANTON     NOT AVBL
LA GRANGE      CLOUDY    45  45  99 N3        30.22F FOG
GIDDINGS       CLOUDY    40  40 100 NE3       30.25S FOG
$$

EAST TEXAS

CITY           SKY/WX    TMP DP  RH WIND       PRES   REMARKS
PARIS          CLOUDY    43  43 100 CALM      30.23F
CLARKSVILLE    NOT AVBL
TYLER          LGT RAIN  46  45  96 W3        30.24S
LONGVIEW       CLOUDY    50  50 100 NW3       30.23R FOG
PALESTINE      CLOUDY    45  45 100 W7        30.26R FOG
NACOGDOCHES    FOG       54  54 100 NW7       30.23R VSB 1
$$

TEXAS HILL COUNTRY AND EDWARDS PLATEAU

CITY           SKY/WX    TMP DP  RH WIND       PRES   REMARKS
LLANO          CLOUDY    41  39  93 CALM      30.26S FOG
HORSESHOE BAY  CLOUDY    42  42 100 CALM      30.23S FOG
KERRVILLE      DRIZZLE   46  44  91 CALM      30.20R
FREDERICKSBRG  CLOUDY    42  41  95 NE3       30.20S FOG
ROCKSPRINGS    FOG       46  46 100 E5        30.20F VSB 3/4
HONDO          CLOUDY    54  52  93 CALM      30.18S FOG
UVALDE         CLOUDY    51  50  97 CALM      30.21R FOG
DEL RIO        CLOUDY    55  49  80 SE8       30.15F
$$

SOUTHEAST TEXAS

CITY           SKY/WX    TMP DP  RH WIND       PRES   REMARKS
COLLEGE STN    CLOUDY    45  45 100 N6        30.25R FOG
CALDWELL       CLOUDY    42  42  99 CALM      30.26R FOG
CROCKETT       FOG       46  45  93 N3        30.26F VSB 1
BRENHAM        CLOUDY    46  46 100 N6        30.26R FOG
HUNTSVILLE     LGT RAIN  47  46  97 NW6       30.24R VSB 3/4
CONROE         CLOUDY    54  54 100 NW6       30.22S FOG
HOUSTON BUSH   FOG       58  58 100 N3        30.20F VSB 1/4
HOUSTON HOBBY  CLOUDY    65  65 100 NW3       30.19F FOG
PERLAND        CLOUDY    71  71 100 S8        30.20F
WHARTON        FOG       51  50  97 N7        30.22R VSB 3/4
$$

THE UPPER TEXAS COAST

CITY           SKY/WX    TMP DP  RH WIND       PRES   REMARKS
ORANGE         CLOUDY    72  72 100 S9        30.24S
PORT ARTHUR    CLOUDY    71  69  93 S10       30.21F
GALVESTON      FOG       70  69  97 SE9       30.20F VSB 1/2
ANGLETON       CLOUDY    72  70  93 S10       30.19S
BAY CITY       CLOUDY    60  60 100 NW5       30.20R FOG
$$

TEXAS COASTAL BEND, RIO GRANDE PLAINS DEEP SOUTH TEXAS

CITY           SKY/WX    TMP DP  RH WIND       PRES   REMARKS
VICTORIA       FOG       49  48  97 N10       30.21F VSB 3/4
BEEVILLE       CLOUDY    48  48 100 NE8G16    30.18S FOG
ROCKPORT       FOG       55  55 100 N9        30.19R VSB 3/4
PORT ARANSAS   NOT AVBL
PORT LAVACA    FOG       53  52  97 N7        30.21R VSB 1/2
CORPUS CHRISTI CLOUDY    53  53 100 N9        30.18F FOG
KINGSVILLE NAS CLOUDY    54  53  97 NW6       30.18R
COTULLA        RAIN      51  51 100 W3        30.22S FOG
LAREDO         LGT RAIN  53  52  96 N10       30.17
BROWNSVILLE    CLOUDY    62  61  96 NW7       30.17S
PORT ISABEL    CLOUDY    59  58  96 NW10      30.16S FOG
HEBBRONVILLE   LGT RAIN  54  53  97 CALM      30.18F
MCALLEN        CLOUDY    60  58  92 NW3       30.20R
WESLACO        NOT AVBL
FALFURRIAS     CLOUDY    55  53  94 CALM      30.19R
EDINBURG       CLOUDY    58  56  92 W7        30.21R
$$




USA.gov is the U.S. government's official web portal to all federal, state and local government web resources and services.